Weather History for KLWD - September, 2012

Change the Weather History Date:

Tuesday, September 4, 2012

  Actual Average Record
Temperature  
Mean Temperature 80 °F 70 °F  
Max Temperature 90 °F 80 °F 95 °F (1990)
Min Temperature 69 °F 59 °F 47 °F (2010)
Degree Days  
Heating Degree Days 0 1  
Month to date heating degree days 0 4  
Since 1 July heating degree days 1 12  
Cooling Degree Days 15 6  
Month to date cooling degree days 44 24  
Year to date cooling degree days 1255 862  
Growing Degree Days 30 (Base 50)    
Moisture  
Dew Point 70 °F    
Average Humidity 75    
Maximum Humidity 93    
Minimum Humidity 56    
Precipitation  
Precipitation 0.00 in 0.17 in 3.38 in (1971)
Month to date precipitation 0.06 0.63  
Sea Level Pressure  
Sea Level Pressure 29.84 in    
Wind  
Wind Speed 5 mph (South)    
Max Wind Speed 13 mph    
Max Gust Speed 15 mph    
Visibility 10 miles    
Events      
T = Trace of Precipitation, MM = Missing Value Source: NWS Daily Summary

Daily Weather History Graph

Daily Weather History Graph

Search for Another Location

Airport or City:

Trip Planner

Search our weather history database for the weather conditions in past years. The results will help you decide how hot, cold, wet, or windy it might be!

Date:

Astronomy

Sep. 04, 2012 Rise Set
Actual Time 6:46 AM CDT 7:42 PM CDT
Civil Twilight 6:18 AM CDT 8:09 PM CDT
Nautical Twilight 5:45 AM CDT 8:42 PM CDT
Astronomical Twilight 5:10 AM CDT 9:17 PM CDT
Moon 9:33 PM CDT (9/4) 10:55 AM CDT (9/4)
Length of Visible Light 13h 51m
Length of Day
12h 55m
Waning Gibbous, 83% of the Moon is Illuminated
Sep 4
Waning Gibbous
Sep 8
Last Quarter
Sep 15
New
Sep 22
First Quarter
Sep 29
Full

Hourly Weather History & Observations

Time (CDT) Temp. Heat Index Dew Point Humidity Pressure Visibility Wind Dir Wind Speed Gust Speed Precip Events Conditions
12:53 AM 78.1 °F - 69.1 °F 74% 29.86 in 10.0 mi South 9.2 mph - N/A   Partly Cloudy
1:53 AM 77.0 °F - 70.0 °F 79% 29.84 in 10.0 mi South 8.1 mph - N/A   Clear
2:53 AM 73.9 °F - 70.0 °F 87% 29.85 in 10.0 mi Calm Calm - N/A   Clear
3:53 AM 73.9 °F - 69.1 °F 85% 29.85 in 10.0 mi Calm Calm - 0.01 in   Clear
4:53 AM 72.0 °F - 69.1 °F 91% 29.85 in 10.0 mi Calm Calm - N/A   Clear
5:53 AM 69.1 °F - 66.9 °F 93% 29.87 in 8.0 mi Calm Calm - 0.01 in   Clear
6:53 AM 69.1 °F - 66.9 °F 93% 29.88 in 5.0 mi Calm Calm - N/A   Clear
7:53 AM 72.0 °F - 69.1 °F 91% 29.89 in 10.0 mi Calm Calm - N/A   Clear
8:53 AM 75.9 °F - 70.0 °F 82% 29.88 in 10.0 mi SSW 3.5 mph - N/A   Clear
9:53 AM 79.0 °F - 68.0 °F 69% 29.88 in 10.0 mi South 9.2 mph - N/A   Clear
10:53 AM 81.0 °F 84.1 °F 69.1 °F 67% 29.88 in 10.0 mi SSW 9.2 mph - N/A   Clear
11:53 AM 84.0 °F 89.0 °F 71.1 °F 65% 29.87 in 10.0 mi SSW 6.9 mph - N/A   Clear
12:53 PM 86.0 °F 91.5 °F 71.1 °F 61% 29.86 in 10.0 mi WSW 4.6 mph - N/A   Clear
1:53 PM 87.1 °F 92.8 °F 71.1 °F 59% 29.84 in 10.0 mi SW 4.6 mph - N/A   Clear
2:53 PM 88.0 °F 93.8 °F 71.1 °F 57% 29.82 in 10.0 mi SSE 4.6 mph - N/A   Clear
3:53 PM 90.0 °F 96.9 °F 72.0 °F 55% 29.81 in 10.0 mi WSW 3.5 mph - N/A   Clear
5:53 PM 89.1 °F 95.0 °F 71.1 °F 55% 29.79 in 10.0 mi SE 6.9 mph - N/A   Clear
6:53 PM 87.1 °F 92.8 °F 71.1 °F 59% 29.78 in 10.0 mi SSE 5.8 mph - N/A   Clear
7:53 PM 84.0 °F 89.0 °F 71.1 °F 65% 29.78 in 10.0 mi SSE 5.8 mph - 0.01 in   Clear
8:53 PM 81.0 °F 84.9 °F 71.1 °F 72% 29.79 in 10.0 mi South 5.8 mph - 0.01 in   Clear
10:53 PM 78.1 °F - 70.0 °F 76% 29.76 in 10.0 mi South 6.9 mph - N/A   Clear
11:53 PM 75.9 °F - 70.0 °F 82% 29.75 in 10.0 mi South 5.8 mph - N/A   Clear